CZ-6A DEB, 61471

Orbit data source: Space-Track

CZ-6A DEB, 61471 is space debris in LEO originally from a launch on Tue, 06 Aug 2024 UTC launched from the Taiyaun Space Center, China (TSC). Debris objects in space refer to the collection of defunct objects orbiting the Earth. Examples of debris include non-operational satellites, rocket bodies, and fragments generated from explosions, collisions, or faulty payload assembly.

Loading next visibility...
Identifier
61471, 2024-140AAD
Orbit
LEO
Country
Flag of CNCN / PRC
Related business
Manufacturer
SAST
Mission
Spacecraft
Bus & Motor
Unknown
Mass
Unknown
Launch date (UTC)
2024-08-06 (1 year ago)
Launch vehicle
Unknown
Launch site
Taiyaun Space Center, China (TSC)
Object type
Payload
Rocket body
Debris
Shape & HBR
Unknown shape, 0.1 m
Radar Cross Section
Small (<0.1 m²)

Expand to show TLE details & history
Last TLE update: 2 days ago

TLE from 2 days ago
0 CZ-6A DEB
1 61471U 24140AAD 25311.96882637  .00004065  00000-0  21824-2 0  9995
2 61471  88.9071 295.7692 0107854 187.8075 172.1437 14.09868223 58804
Epoch: 2025-11-07T23:15Z
TLE epoch observation values (Epoch: 2025-11-07T23:15:06.598Z)
Latitude
0.00007°
Longitude
-100.41346°
Altitude
940.225 km
Speed
7.342 km/s
True Right ascension
19h 43m 04s
True Declination
0° 00' 00"
Sunlit
Object was in daylight at epoch
Visualization orbit readout
Latitude
Unknown
Longitude
Unknown
Altitude
Unknown
Speed
Unknown
Apparent Right ascension
Unknown
Apparent Declination
Unknown
Sunlit
N/A
Visualization observer readout
Local Sidereal Time
17:15:04
Azimuth
Unknown
Elevation
Unknown
Doppler factor
Unknown
Orbital elements
Apogee altitude
934.82 km
Perigee altitude
778.757 km
Semi-major axis
7,234.925 km
Eccentricity
0.01079
Inclination
88.9071°
RAAN
295.7692°
Arg. of periapsis
187.8075°
True anomaly
172.31041°
Mean anomaly
172.1437°
Eccentric anomaly
172.22728°
Mean motion
3.52689 °/min
Orbital period
102.07 mins
BSTAR
0.0021824
Loading maneuver chart data...
Computing Atmospheric mass density...
Loading historical data...
Loading historical data...
Loading historical data...
Loading historical data...
Loading historical data...
Loading historical data...
Loading historical data...

Documentation

Showing up to 5 results
|